This demonstration page uses our WeatherBlox Daily Observations layout. Learn more.

Left ArrowRight Arrow

39.51506, -84.39828

Hourly Observations for July 1, 2021

Temp ( °F °C ) Dew Point ( °F °C ) Humidity (%) Winds ( mph kmh ) Pressure ( in mb ) Visibility ( mi km ) Precip ( " mm )
12:15 am 00:15 Mostly Cloudy 72 22 N/A N/A SW 7 11 30.02 1017 10 16 N/A
12:35 am 00:35 Mostly Cloudy 72 22 N/A N/A SSW 7 11 30.01 1016 10 16 N/A
12:55 am 00:55 Cloudy 72 22 N/A N/A S 3 6 30.00 1016 10 16 N/A
1:15 am 01:15 Cloudy 72 22 N/A N/A N N/A 30.00 1016 10 16 N/A
1:35 am 01:35 Cloudy 72 22 N/A N/A N N/A 29.98 1015 10 16 N/A
1:55 am 01:55 Partly Cloudy 70 21 N/A N/A W 6 9 29.98 1015 7 11 N/A
2:15 am 02:15 Mostly Cloudy 70 21 N/A N/A WSW 5 7 29.98 1015 10 16 N/A
2:35 am 02:35 Cloudy 70 21 N/A N/A WSW 3 6 29.98 1015 7 11 N/A
2:55 am 02:55 Clear 70 21 N/A N/A N N/A 29.96 1015 7 11 N/A
3:35 am 03:35 Mostly Cloudy with Haze 70 21 N/A N/A N N/A 29.97 1015 7 11 N/A
3:55 am 03:55 Cloudy with Light Rain 70 21 N/A N/A N N/A 29.97 1015 7 11 0.01 0.25
4:15 am 04:15 Cloudy with Light Rain 72 22 N/A N/A N N/A 29.96 1015 7 11 N/A
4:35 am 04:35 Mostly Cloudy with Light Rain 72 22 N/A N/A N N/A 29.96 1015 5 8 N/A
4:55 am 04:55 Cloudy with Light Rain 72 22 N/A N/A SSW 5 7 29.96 1015 4 6 N/A
5:15 am 05:15 Cloudy with Light Rain 70 21 N/A N/A SW 5 7 29.96 1015 7 11 0.01 0.25
5:35 am 05:35 Cloudy with Light Rain 70 21 N/A N/A SSW 5 7 29.96 1015 10 16 0.01 0.25
5:55 am 05:55 Mostly Cloudy with Light Rain 70 21 N/A N/A N N/A 29.96 1015 10 16 0.01 0.25
6:15 am 06:15 Mostly Cloudy with Light Rain 70 21 N/A N/A N N/A 29.95 1014 7 11 N/A
6:35 am 06:35 Cloudy with Haze 70 21 N/A N/A N N/A 29.96 1015 7 11 N/A
6:55 am 06:55 Cloudy with Rain 70 21 N/A N/A N N/A 29.96 1015 7 11 N/A
7:15 am 07:15 Partly Cloudy with Light Rain 70 21 N/A N/A N N/A 29.96 1015 4 6 0.01 0.25
7:35 am 07:35 Mostly Cloudy with Light Rain 70 21 N/A N/A N N/A 29.96 1015 4 6 0.01 0.25
7:55 am 07:55 Partly Cloudy with Light Rain 70 21 N/A N/A S 3 6 29.96 1015 7 11 0.01 0.25
8:15 am 08:15 Hazy 70 21 N/A N/A N N/A 29.95 1014 7 11 N/A
8:35 am 08:35 Cloudy with Light Rain 72 22 N/A N/A N N/A 29.96 1015 5 8 N/A
8:55 am 08:55 Mostly Cloudy with Light Rain 70 21 N/A N/A NW 5 7 29.96 1015 7 11 N/A
9:15 am 09:15 Mostly Cloudy with Light Rain 71 21.4 69 20.8 96 96 N N/A 29.95 1014 10 16 N/A
9:35 am 09:35 Cloudy with Light Rain 71 21.4 70 21 98 98 N N/A 29.96 1015 10 16 0.01 0.25
9:55 am 09:55 Partly Cloudy with Light Rain 71 21.5 69 20.5 94 94 N N/A 29.95 1014 10 16 0.01 0.25
10:15 am 10:15 Mostly Cloudy 71 21.7 71 21.5 99 99 N N/A 29.96 1015 10 16 N/A
10:35 am 10:35 Partly Cloudy 71 21.8 70 21.1 96 96 W 3 6 29.95 1014 10 16 N/A
10:55 am 10:55 Mostly Cloudy 71 21.9 70 20.9 94 94 W 3 6 29.95 1014 10 16 N/A
11:15 am 11:15 Mostly Cloudy with Light Rain 72 22 70 21.3 96 96 SSW 6 9 29.95 1014 10 16 N/A
11:35 am 11:35 Partly Cloudy 72 22.1 71 21.5 96 96 W 5 7 29.96 1015 10 16 0.01 0.25
11:55 am 11:55 Mostly Cloudy 72 22.2 70 21.3 95 95 N N/A 29.95 1014 10 16 0.01 0.25
12:15 pm 12:15 Cloudy 72 22.2 70 21.3 95 95 SW 3 6 29.95 1014 10 16 N/A
12:35 pm 12:35 Cloudy 72 22.3 71 21.5 95 95 WNW 3 6 29.95 1014 10 16 N/A
12:55 pm 12:55 Cloudy 73 22.5 71 21.6 95 95 N N/A 29.94 1014 10 16 N/A
1:15 pm 13:15 Cloudy 72 22.4 70 21.3 94 94 WNW 5 7 29.94 1014 10 16 N/A
1:35 pm 13:35 Cloudy 73 22.6 71 21.5 94 94 WNW 3 6 29.94 1014 10 16 0.01 0.25
1:55 pm 13:55 Cloudy 73 22.5 71 21.4 94 94 WNW 6 9 29.94 1014 10 16 0.01 0.25
2:15 pm 14:15 Cloudy 73 22.9 70 21.3 91 91 WNW 5 7 29.94 1014 10 16 N/A
2:35 pm 14:35 Partly Cloudy 74 23.3 70 21.3 89 89 W 5 7 29.93 1013 10 16 N/A
2:55 pm 14:55 Sunny 75 23.7 71 21.6 88 88 WNW 5 7 29.92 1013 10 16 N/A
3:15 pm 15:15 Cloudy 75 23.7 71 21.6 88 88 WNW 6 9 29.93 1013 10 16 0.01 0.25
3:35 pm 15:35 Partly Cloudy 75 24 71 21.8 88 88 NNW 3 6 29.92 1013 10 16 0.01 0.25
3:55 pm 15:55 Hazy 76 24.2 71 21.8 87 87 NNW 3 6 29.90 1013 5 8 0.01 0.25
4:15 pm 16:15 Partly Cloudy 78 25.3 71 21.5 80 80 N 5 7 29.89 1012 10 16 N/A
4:35 pm 16:35 Partly Cloudy 79 26 71 21.6 77 77 NNE 3 6 29.88 1012 10 16 0.01 0.25
4:55 pm 16:55 Partly Cloudy 79 25.9 69 20.6 73 73 N N/A 29.88 1012 10 16 0.01 0.25
5:15 pm 17:15 Partly Cloudy 79 26.3 67 19.7 67 67 N N/A 29.87 1012 10 16 N/A
5:35 pm 17:35 Partly Cloudy 80 26.9 68 20.2 67 67 N N/A 29.87 1011 10 16 0.01 0.25
5:55 pm 17:55 Mostly Cloudy 81 27 69 20.3 67 67 NNE 5 7 29.87 1011 7 11 0.01 0.25
6:15 pm 18:15 Mostly Cloudy with Haze 82 27.6 69 20.6 66 66 WNW 5 7 29.86 1011 7 11 N/A
6:35 pm 18:35 Partly Cloudy 80 26.8 69 20.3 68 68 NNE 6 9 29.86 1011 7 11 0.01 0.25
6:55 pm 18:55 Partly Cloudy 78 25.7 69 20.7 74 74 N 3 6 29.86 1011 10 16 0.01 0.25
7:15 pm 19:15 Cloudy with Light Rain 77 24.9 70 20.9 79 79 N 8 13 29.87 1012 4 6 N/A
7:35 pm 19:35 Sunny 77 25 70 21.1 79 79 N 7 11 29.87 1012 10 16 N/A
7:55 pm 19:55 Sunny 77 24.9 71 21.8 83 83 NW 3 6 29.87 1012 10 16 N/A
8:15 pm 20:15 Sunny 77 24.8 71 21.5 82 82 NNW 3 6 29.87 1012 10 16 N/A
8:35 pm 20:35 Sunny 76 24.2 73 22.5 90 90 N N/A 29.88 1012 10 16 N/A
8:55 pm 20:55 Sunny 74 23.4 71 21.9 91 91 N N/A 29.88 1012 10 16 N/A
9:15 pm 21:15 Clear 73 22.9 71 21.9 94 94 N N/A 29.88 1012 10 16 N/A
9:35 pm 21:35 Clear 72 22 72 22 100 100 N N/A 29.89 1012 10 16 N/A
9:55 pm 21:55 Hazy 70 21 N/A N/A N N/A 29.89 1012 4 6 N/A
10:15 pm 22:15 Mostly Cloudy with Mist and Fog 70 21 N/A N/A N N/A 29.90 1013 1 2 N/A
10:35 pm 22:35 Mostly Cloudy with Mist and Fog 68 20 N/A N/A N N/A 29.91 1013 1 1 N/A
10:55 pm 22:55 Mostly Cloudy with Mist and Fog 66 19 N/A N/A NNW 6 9 29.92 1013 1 2 N/A
11:15 pm 23:15 Clear 70 20.9 66 18.7 87 87 NNW 8 13 29.91 1013 10 16 N/A
11:35 pm 23:35 Clear 70 20.9 65 18.3 85 85 N 9 15 29.92 1013 10 16 0.01 0.25
11:55 pm 23:55 Clear 69 20.7 64 18 85 85 NNE 8 13 29.92 1013 10 16 0.01 0.25

Powered by AerisWeather